SCP
0 0 0 0 0 0 0 0 0 0 0 0 0 0 0 0 0 0 0 0 0 0 0 0 0 0 -0 -0 0 -0 -0 0 0 -0 -0 -0 0 0 0 -0 0 0 0
0 0 0 0 0 0 0 0 0 0 0 0 0 0 0 0 0 0 0 0 0 0 0 0 0 0 -0 -0 -0 -0 0 -0 -0 -0 -0 0 0 0 -0 0 0 -0 -0
0 -0 0 0 0 0 0 0 0 0 0 0 0 0 0 0 0 0 1 0 0 0 0 0 0 -0 0 0 -0 0 -0 0 0 0 0 0 0 0 0 0 -0 -0 -0
0 -0 0 0 0 0 0 0 0 0 0 0 0 0 0 0 0 0 0 0 0 0 0 0 0 0 0 0 0 0 0 0 0 0 0 0 0 0 0 0 -0 -0 -0
-0 0 0 0 0 0 0 0 0 0 0 0 0 0 0 0 0 0 0 0 0 0 0 0 0 0 -0 0 -0 0 0 0 -0 0 0 0 0 0 0 -0 -0 -0 -0
0 0 0 0 0 0 0 0 0 0 0 0 0 0 0 0 0 0 0 0 0 0 0 0 0 0 0 0 -0 0 0 -0 -0 0 0 0 0 0 -0 -0 -0 -0 -0
0 -0 0 0 0 -0 -0 0 0 0 0 0 0 0 0 0 0 0 0 0 0 0 0 0 0 0 0 0 -0 0 0 -0 0 0 0 0 0 -0 -0 -0 -0 -0 -0
0 0 0 0 -0 0 0 0 0 0 0 0 0 0 0 0 0 0 0 0 0 0 0 0 0 0 0 0 0 0 0 0 -0 0 0 0 -0 -0 -0 -0 -0 -0 -0
0 0 -0 -0 0 0 0 0 0 0 0 0 0 0 0 0 0 0 0 0 0 0 0 0 0 0 0 0 0 0 0 0 0 -0 -0 -0 -0 -0 -0 -0 -0 -0 0
-0 0 0 0 0 0 0 0 0 0 0 0 0 0 0 0 0 0 0 0 0 0 0 0 0 0 0 0 0 0 -0 0 0 0 -0 -0 -0 -0 -0 -0 -0 0 0
-0 -0 0 0 -0 0 0 0 0 0 0 0 0 0 0 0 0 0 0 0 0 0 0 0 0 0 0 0 0 0 0 0 0 -0 -0 -0 -0 -0 -0 -0 -0 0 0
0 0 -0 0 0 0 0 0 0 0 0 0 0 0 0 0 0 0 0 0 0 0 0 0 0 0 0 0 0 0 0 0 -0 -0 -0 -0 -0 -0 -0 -0 -0 0 0
0 -0 -0 0 0 0 0 0 0 0 0 0 0 0 0 0 0 0 0 0 0 0 0 0 0 0 0 0 0 0 0 -0 0 -0 -0 -0 -0 -0 -0 -0 -0 -0 0
-0 -0 0 0 0 0 0 0 0 0 0 0 0 0 0 0 0 0 -0 -0 0 0 0 0 0 -0 0 0 0 0 0 -0 0 0 -0 -0 -0 -0 -0 -0 -0 0 0
0 0 0 0 0 0 0 0 0 0 0 0 0 0 0 0 0 0 0 0 0 0 0 0 0 -0 0 0 -0 0 -0 -0 -0 -0 -0 -0 0 0 0 0 0 0 0
0 0 0 0 0 0 0 0 0 0 0 0 0 0 0 0 0 0 0 0 0 0 0 0 0 -0 0 0 -0 -0 0 0 -0 -0 0 0 0 0 0 0 0 0 0
0 0 0 0 0 0 -0 0 0 0 0 0 0 0 0 0 0 0 0 0 0 0 0 0 0 -0 0 0 0 0 -0 -0 -0 -0 -0 -0 -0 0 0 0 0 0 0
0 0 0 0 0 0 0 0 0 0 0 0 0 0 0 0 0 0 0 0 0 0 0 0 0 0 0 0 -0 -0 0 0 0 -0 -0 0 0 0 0 0 0 0 0
0 0 0 0 0 0 0 0 0 0 0 0 0 0 0 0 0 0 0 0 0 0 0 0 0 0 0 0 0 -0 0 -0 0 0 0 0 0 0 0 0 0 0 0
0 0 0 0 0 0 0 0 0 0 0 0 0 0 0 0 0 0 0 0 0 0 0 0 0 0 0 0 0 0 0 0 0 0 0 0 0 0 0 0 0 0 0
0 0 0 0 0 0 0 0 0 0 0 0 0 0 0 0 0 -0 -0 -0 0 0 0 0 0 0 0 0 0 0 0 0 -0 0 0 0 0 0 0 0 0 0 0
0 0 -0 0 0 0 0 0 0 0 0 0 0 0 0 -0 -0 -0 0 0 0 0 0 0 -0 -0 0 0 0 0 0 0 -0 0 0 0 0 0 0 0 0 0 0
0 0 0 0 0 0 0 0 -0 0 0 0 0 -0 0 0 -0 -0 -0 -0 0 0 0 0 0 -0 0 -0 0 0 0 0 0 0 0 0 0 0 0 0 0 0 0
0 0 0 0 0 0 0 0 0 0 0 0 0 0 0 0 -0 0 0 0 0 0 0 0 -0 0 0 0 0 0 0 0 0 0 0 0 0 0 0 0 0 0 0
0 0 0 0 0 0 -0 0 0 0 0 -0 -0 -0 0 0 -0 0 -0 0 -0 -0 -0 0 -0 -0 0 0 0 0 0 0 0 0 0 0 0 0 0 0 0 0 0
0 0 0 0 0 0 0 0 0 0 0 0 0 0 0 0 0 0 -0 -0 -0 -0 -0 -0 -0 -0 0 0 0 0 0 0 0 0 0 0 0 0 0 0 0 0 0
Wind_Speed_500mb
23 22 22 23 25 24 23 31 37 39 37 29 41 30 24 36 30 34 35 30 38 49 50 56 65 74 75 65 62 52 52 49 48 46 44 39 35 30 25 16 13 11 9
29 25 21 27 27 31 28 29 37 37 39 33 43 33 29 36 37 35 38 36 38 49 50 60 62 70 65 68 60 54 52 50 50 45 39 36 31 26 20 13 11 10 12
33 28 23 23 21 30 37 31 35 35 36 36 38 40 39 41 35 40 43 36 45 51 55 63 65 67 58 68 61 56 52 51 47 40 36 33 28 22 15 12 10 12 16
31 26 23 23 22 27 41 38 41 37 40 37 43 42 40 37 32 47 43 40 44 56 58 66 67 72 74 66 61 58 54 52 43 39 34 29 25 18 13 10 13 15 16
23 22 20 18 19 22 36 40 45 45 36 38 41 39 46 34 35 41 45 43 42 51 60 68 78 75 72 70 64 59 57 48 42 38 33 27 20 14 10 11 16 15 13
18 22 14 12 12 15 26 37 39 46 32 31 34 32 48 34 35 39 47 48 46 52 62 71 64 72 84 67 65 56 47 43 40 37 30 23 15 9 9 15 16 13 10
18 19 12 8 8 13 27 31 40 40 35 37 35 38 33 28 35 46 49 55 49 62 68 59 64 75 74 66 69 57 45 43 37 32 28 19 9 6 12 15 13 10 6
16 20 12 10 12 14 25 31 37 36 37 38 44 45 29 29 36 49 54 57 56 57 60 57 70 76 64 67 65 55 50 38 37 33 23 15 7 7 12 12 11 6 1
11 13 13 18 19 18 21 26 36 37 37 42 39 32 23 19 49 52 56 63 64 67 58 69 79 78 79 74 65 49 47 43 34 27 21 11 5 10 13 13 7 1 6
11 17 23 23 18 20 23 26 33 29 31 37 37 24 24 47 34 45 66 73 67 68 67 70 78 79 70 71 58 50 43 35 31 24 16 7 4 13 13 10 5 5 8
12 21 26 30 27 27 23 24 26 31 28 35 33 35 30 50 29 53 63 74 66 69 69 74 65 68 67 66 50 42 39 35 24 18 13 8 11 14 13 9 6 9 9
13 26 32 33 27 30 23 17 23 38 27 39 30 31 34 52 45 69 67 73 67 63 67 65 63 59 61 62 45 37 33 26 23 18 16 13 15 16 13 8 9 10 9
14 32 35 41 30 28 27 22 23 22 30 33 33 38 43 48 55 83 69 75 76 69 59 52 56 58 56 66 44 35 27 26 21 18 14 15 17 18 13 10 10 11 11
18 29 33 34 26 26 26 23 30 29 33 34 38 43 50 50 69 78 85 93 68 67 60 57 52 54 55 57 42 33 21 22 18 16 16 19 21 18 15 11 13 15 15
22 22 27 26 29 27 29 32 33 37 36 44 46 45 55 69 77 81 78 83 82 53 48 56 53 55 55 54 46 25 17 19 18 18 20 21 19 17 14 16 18 19 23
16 19 23 25 32 38 39 37 34 41 44 46 48 49 52 60 71 77 80 76 64 70 41 66 60 57 48 46 33 27 21 19 17 17 18 20 20 19 18 19 22 27 29
19 26 26 33 37 38 41 41 43 43 43 45 43 39 43 56 62 72 72 55 46 49 62 53 47 40 42 46 39 22 19 17 16 19 21 22 24 23 24 27 26 30 31
21 27 27 39 40 45 43 41 48 45 45 40 35 40 46 56 70 69 65 51 57 44 45 44 39 31 27 26 18 18 16 20 18 17 22 23 27 26 25 28 30 35 38
27 32 32 36 40 42 38 36 42 38 33 30 25 40 53 62 56 51 50 55 49 37 36 32 31 30 28 24 25 24 19 19 20 19 17 22 20 23 27 32 38 42 47
31 35 34 33 35 30 29 29 34 32 23 32 36 49 52 54 59 56 49 47 49 34 30 31 30 24 30 33 23 23 23 22 16 14 19 23 29 31 34 37 41 48 49
36 35 33 35 34 24 25 33 37 40 36 38 44 42 45 54 58 57 48 49 40 33 33 27 24 30 30 32 24 15 20 20 21 22 26 25 29 31 32 37 40 40 39
40 29 26 29 33 34 32 35 39 38 44 41 37 42 45 50 52 46 42 35 31 34 29 26 22 20 17 14 12 13 20 21 22 16 29 29 38 47 44 46 46 49 50
26 22 20 31 38 37 37 40 50 43 40 39 47 48 47 49 51 42 34 37 32 29 21 21 15 10 8 6 3 14 18 21 26 27 39 49 49 54 47 53 49 55 51
21 14 30 31 35 37 37 38 36 32 37 37 37 38 43 46 42 42 44 32 31 32 29 22 33 19 12 19 24 23 25 28 28 30 34 38 34 29 23 39 40 33 33
18 19 31 36 40 47 37 34 34 34 37 35 29 28 33 32 37 36 42 46 37 35 26 24 33 32 25 27 30 30 31 31 33 28 34 34 36 45 52 53 52 52 54
28 21 24 30 37 44 41 39 39 45 38 35 33 25 36 36 35 35 42 44 36 38 26 27 21 15 13 6 4 6 7 11 12 24 23 41 46 49 51 40 46 43 46
Wind_Direction_500mb
306 277 272 259 263 252 239 225 216 216 212 219 196 197 215 188 194 205 202 206 192 195 198 193 183 180 170 165 158 163 169 168 163 158 158 151 147 141 138 128 115 99 95
297 293 279 267 255 243 230 222 222 215 205 199 191 195 208 197 207 201 203 198 193 193 186 178 177 173 170 163 158 165 170 166 159 158 154 149 145 142 135 126 103 93 101
281 289 280 268 265 240 226 220 218 211 207 200 193 202 207 209 200 205 200 195 176 185 184 172 169 173 171 157 156 171 169 160 155 152 155 149 150 139 133 111 106 114 118
270 273 273 274 279 247 229 221 212 206 208 203 197 204 206 206 186 189 193 193 176 171 181 184 178 170 158 157 162 170 164 156 153 156 152 152 145 136 128 112 114 123 117
269 267 267 278 282 261 222 216 208 207 200 202 212 222 206 202 188 182 191 182 179 183 186 184 173 160 159 157 165 166 159 155 158 154 155 149 144 133 110 116 131 126 120
255 250 255 280 266 240 199 202 202 203 201 195 187 194 203 191 193 188 189 166 175 178 173 164 164 167 161 161 161 154 155 162 162 159 151 154 134 125 117 134 139 133 120
254 246 238 243 217 205 189 194 187 189 183 188 179 177 174 180 181 190 181 167 172 172 169 166 162 158 159 159 156 163 160 174 157 162 163 145 132 126 145 150 146 132 110
250 216 212 194 167 168 182 184 196 187 193 187 174 163 171 172 177 177 178 161 164 174 172 164 163 156 159 163 160 160 171 165 171 169 154 162 145 154 154 156 159 138 8
188 183 174 168 160 168 173 188 190 198 188 188 180 174 149 167 160 174 174 159 159 164 165 167 167 161 160 160 160 165 177 183 172 167 172 162 157 151 171 177 161 246 309
154 155 155 150 133 145 164 168 176 184 191 188 183 194 187 169 156 144 160 159 162 163 164 163 159 161 163 164 170 178 179 179 178 175 175 173 169 184 186 181 212 284 299
162 156 159 145 141 134 154 157 158 173 177 184 193 179 171 156 163 146 134 156 167 169 167 162 165 167 167 173 175 181 179 186 178 179 179 191 205 197 194 193 251 279 282
160 162 165 162 159 146 154 155 153 167 166 181 174 182 171 154 159 149 135 144 151 156 162 166 170 173 171 172 175 175 177 177 193 191 196 215 210 200 195 218 266 279 290
146 167 167 170 165 162 161 168 157 156 158 167 163 165 140 143 148 165 145 143 139 149 155 165 175 176 172 176 172 174 177 189 197 203 217 221 198 195 204 234 267 273 288
136 155 168 171 174 161 170 161 156 163 157 163 159 154 163 155 157 164 153 148 141 155 159 163 173 173 166 173 176 175 186 194 205 220 208 196 192 202 219 252 261 266 282
136 146 160 170 172 173 158 160 162 164 162 155 155 156 150 156 164 164 161 154 155 147 154 170 167 173 171 176 179 179 200 213 218 207 197 198 205 218 244 261 270 271 275
110 143 154 151 152 152 154 157 155 153 142 144 148 149 153 161 162 165 159 160 158 161 150 164 166 173 173 179 182 208 213 205 214 219 221 219 224 240 263 275 278 279 280
90 131 135 146 147 147 153 155 149 147 150 147 145 153 152 159 158 164 153 155 149 165 156 160 163 164 170 182 203 205 203 208 215 221 223 230 241 260 273 278 280 282 290
115 130 135 144 145 144 151 158 158 149 139 137 151 156 157 161 158 151 157 159 155 158 164 160 163 171 184 191 206 212 197 211 215 232 246 254 261 266 275 285 288 288 291
138 133 137 143 146 147 150 161 171 169 162 151 144 160 161 163 167 173 168 161 161 147 163 170 183 202 204 201 203 194 208 220 223 234 249 245 268 286 285 285 287 291 291
133 130 126 136 136 141 146 161 168 168 162 152 146 149 150 154 154 159 163 154 158 160 171 183 193 197 204 203 204 214 222 242 268 267 271 279 280 287 291 295 296 292 295
118 120 125 143 148 151 161 169 159 152 140 138 133 140 145 153 153 147 144 150 151 162 165 174 190 178 193 201 211 212 233 247 259 273 273 286 298 297 301 301 303 306 309
118 122 118 135 139 135 129 143 147 150 154 153 148 146 141 143 142 142 136 145 158 166 162 163 152 156 181 165 177 218 236 243 261 273 296 302 305 303 301 304 319 311 309
120 118 134 128 129 136 140 134 141 140 134 138 147 141 142 147 159 157 156 159 171 175 174 178 194 170 188 65 292 254 254 265 282 300 295 297 302 306 318 313 315 310 306
147 129 148 148 135 131 138 143 147 136 136 139 146 147 149 151 158 165 162 172 175 175 185 205 220 232 249 249 245 261 272 282 276 287 288 299 311 326 341 331 326 314 315
150 139 153 150 149 141 139 135 145 147 145 143 145 152 157 153 157 169 177 177 175 182 176 174 183 203 215 224 234 256 261 269 278 286 292 302 306 306 308 318 322 312 312
167 168 159 165 160 153 155 154 154 151 155 159 168 171 182 180 176 177 177 185 185 192 200 205 206 213 237 261 249 242 261 276 294 320 319 326 326 331 329 325 329 341 343
Wind_Speed_850mb
23 22 22 23 25 24 23 31 37 39 37 29 41 30 24 36 30 34 35 30 38 49 50 56 65 74 75 65 62 52 52 49 48 46 44 39 35 30 25 16 13 11 9
29 25 21 27 27 31 28 29 37 37 39 33 43 33 29 36 37 35 38 36 38 49 50 60 62 70 65 68 60 54 52 50 50 45 39 36 31 26 20 13 11 10 12
33 28 23 23 21 30 37 31 35 35 36 36 38 40 39 41 35 40 43 36 45 51 55 63 65 67 58 68 61 56 52 51 47 40 36 33 28 22 15 12 10 12 16
31 26 23 23 22 27 41 38 41 37 40 37 43 42 40 37 32 47 43 40 44 56 58 66 67 72 74 66 61 58 54 52 43 39 34 29 25 18 13 10 13 15 16
23 22 20 18 19 22 36 40 45 45 36 38 41 39 46 34 35 41 45 43 42 51 60 68 78 75 72 70 64 59 57 48 42 38 33 27 20 14 10 11 16 15 13
18 22 14 12 12 15 26 37 39 46 32 31 34 32 48 34 35 39 47 48 46 52 62 71 64 72 84 67 65 56 47 43 40 37 30 23 15 9 9 15 16 13 10
18 19 12 8 8 13 27 31 40 40 35 37 35 38 33 28 35 46 49 55 49 62 68 59 64 75 74 66 69 57 45 43 37 32 28 19 9 6 12 15 13 10 6
16 20 12 10 12 14 25 31 37 36 37 38 44 45 29 29 36 49 54 57 56 57 60 57 70 76 64 67 65 55 50 38 37 33 23 15 7 7 12 12 11 6 1
11 13 13 18 19 18 21 26 36 37 37 42 39 32 23 19 49 52 56 63 64 67 58 69 79 78 79 74 65 49 47 43 34 27 21 11 5 10 13 13 7 1 6
11 17 23 23 18 20 23 26 33 29 31 37 37 24 24 47 34 45 66 73 67 68 67 70 78 79 70 71 58 50 43 35 31 24 16 7 4 13 13 10 5 5 8
12 21 26 30 27 27 23 24 26 31 28 35 33 35 30 50 29 53 63 74 66 69 69 74 65 68 67 66 50 42 39 35 24 18 13 8 11 14 13 9 6 9 9
13 26 32 33 27 30 23 17 23 38 27 39 30 31 34 52 45 69 67 73 67 63 67 65 63 59 61 62 45 37 33 26 23 18 16 13 15 16 13 8 9 10 9
14 32 35 41 30 28 27 22 23 22 30 33 33 38 43 48 55 83 69 75 76 69 59 52 56 58 56 66 44 35 27 26 21 18 14 15 17 18 13 10 10 11 11
18 29 33 34 26 26 26 23 30 29 33 34 38 43 50 50 69 78 85 93 68 67 60 57 52 54 55 57 42 33 21 22 18 16 16 19 21 18 15 11 13 15 15
22 22 27 26 29 27 29 32 33 37 36 44 46 45 55 69 77 81 78 83 82 53 48 56 53 55 55 54 46 25 17 19 18 18 20 21 19 17 14 16 18 19 23
16 19 23 25 32 38 39 37 34 41 44 46 48 49 52 60 71 77 80 76 64 70 41 66 60 57 48 46 33 27 21 19 17 17 18 20 20 19 18 19 22 27 29
19 26 26 33 37 38 41 41 43 43 43 45 43 39 43 56 62 72 72 55 46 49 62 53 47 40 42 46 39 22 19 17 16 19 21 22 24 23 24 27 26 30 31
21 27 27 39 40 45 43 41 48 45 45 40 35 40 46 56 70 69 65 51 57 44 45 44 39 31 27 26 18 18 16 20 18 17 22 23 27 26 25 28 30 35 38
27 32 32 36 40 42 38 36 42 38 33 30 25 40 53 62 56 51 50 55 49 37 36 32 31 30 28 24 25 24 19 19 20 19 17 22 20 23 27 32 38 42 47
31 35 34 33 35 30 29 29 34 32 23 32 36 49 52 54 59 56 49 47 49 34 30 31 30 24 30 33 23 23 23 22 16 14 19 23 29 31 34 37 41 48 49
36 35 33 35 34 24 25 33 37 40 36 38 44 42 45 54 58 57 48 49 40 33 33 27 24 30 30 32 24 15 20 20 21 22 26 25 29 31 32 37 40 40 39
40 29 26 29 33 34 32 35 39 38 44 41 37 42 45 50 52 46 42 35 31 34 29 26 22 20 17 14 12 13 20 21 22 16 29 29 38 47 44 46 46 49 50
26 22 20 31 38 37 37 40 50 43 40 39 47 48 47 49 51 42 34 37 32 29 21 21 15 10 8 6 3 14 18 21 26 27 39 49 49 54 47 53 49 55 51
21 14 30 31 35 37 37 38 36 32 37 37 37 38 43 46 42 42 44 32 31 32 29 22 33 19 12 19 24 23 25 28 28 30 34 38 34 29 23 39 40 33 33
18 19 31 36 40 47 37 34 34 34 37 35 29 28 33 32 37 36 42 46 37 35 26 24 33 32 25 27 30 30 31 31 33 28 34 34 36 45 52 53 52 52 54
28 21 24 30 37 44 41 39 39 45 38 35 33 25 36 36 35 35 42 44 36 38 26 27 21 15 13 6 4 6 7 11 12 24 23 41 46 49 51 40 46 43 46
Wind_Direction_850mb
306 277 272 259 263 252 239 225 216 216 212 219 196 197 215 188 194 205 202 206 192 195 198 193 183 180 170 165 158 163 169 168 163 158 158 151 147 141 138 128 115 99 95
297 293 279 267 255 243 230 222 222 215 205 199 191 195 208 197 207 201 203 198 193 193 186 178 177 173 170 163 158 165 170 166 159 158 154 149 145 142 135 126 103 93 101
281 289 280 268 265 240 226 220 218 211 207 200 193 202 207 209 200 205 200 195 176 185 184 172 169 173 171 157 156 171 169 160 155 152 155 149 150 139 133 111 106 114 118
270 273 273 274 279 247 229 221 212 206 208 203 197 204 206 206 186 189 193 193 176 171 181 184 178 170 158 157 162 170 164 156 153 156 152 152 145 136 128 112 114 123 117
269 267 267 278 282 261 222 216 208 207 200 202 212 222 206 202 188 182 191 182 179 183 186 184 173 160 159 157 165 166 159 155 158 154 155 149 144 133 110 116 131 126 120
255 250 255 280 266 240 199 202 202 203 201 195 187 194 203 191 193 188 189 166 175 178 173 164 164 167 161 161 161 154 155 162 162 159 151 154 134 125 117 134 139 133 120
254 246 238 243 217 205 189 194 187 189 183 188 179 177 174 180 181 190 181 167 172 172 169 166 162 158 159 159 156 163 160 174 157 162 163 145 132 126 145 150 146 132 110
250 216 212 194 167 168 182 184 196 187 193 187 174 163 171 172 177 177 178 161 164 174 172 164 163 156 159 163 160 160 171 165 171 169 154 162 145 154 154 156 159 138 8
188 183 174 168 160 168 173 188 190 198 188 188 180 174 149 167 160 174 174 159 159 164 165 167 167 161 160 160 160 165 177 183 172 167 172 162 157 151 171 177 161 246 309
154 155 155 150 133 145 164 168 176 184 191 188 183 194 187 169 156 144 160 159 162 163 164 163 159 161 163 164 170 178 179 179 178 175 175 173 169 184 186 181 212 284 299
162 156 159 145 141 134 154 157 158 173 177 184 193 179 171 156 163 146 134 156 167 169 167 162 165 167 167 173 175 181 179 186 178 179 179 191 205 197 194 193 251 279 282
160 162 165 162 159 146 154 155 153 167 166 181 174 182 171 154 159 149 135 144 151 156 162 166 170 173 171 172 175 175 177 177 193 191 196 215 210 200 195 218 266 279 290
146 167 167 170 165 162 161 168 157 156 158 167 163 165 140 143 148 165 145 143 139 149 155 165 175 176 172 176 172 174 177 189 197 203 217 221 198 195 204 234 267 273 288
136 155 168 171 174 161 170 161 156 163 157 163 159 154 163 155 157 164 153 148 141 155 159 163 173 173 166 173 176 175 186 194 205 220 208 196 192 202 219 252 261 266 282
136 146 160 170 172 173 158 160 162 164 162 155 155 156 150 156 164 164 161 154 155 147 154 170 167 173 171 176 179 179 200 213 218 207 197 198 205 218 244 261 270 271 275
110 143 154 151 152 152 154 157 155 153 142 144 148 149 153 161 162 165 159 160 158 161 150 164 166 173 173 179 182 208 213 205 214 219 221 219 224 240 263 275 278 279 280
90 131 135 146 147 147 153 155 149 147 150 147 145 153 152 159 158 164 153 155 149 165 156 160 163 164 170 182 203 205 203 208 215 221 223 230 241 260 273 278 280 282 290
115 130 135 144 145 144 151 158 158 149 139 137 151 156 157 161 158 151 157 159 155 158 164 160 163 171 184 191 206 212 197 211 215 232 246 254 261 266 275 285 288 288 291
138 133 137 143 146 147 150 161 171 169 162 151 144 160 161 163 167 173 168 161 161 147 163 170 183 202 204 201 203 194 208 220 223 234 249 245 268 286 285 285 287 291 291
133 130 126 136 136 141 146 161 168 168 162 152 146 149 150 154 154 159 163 154 158 160 171 183 193 197 204 203 204 214 222 242 268 267 271 279 280 287 291 295 296 292 295
118 120 125 143 148 151 161 169 159 152 140 138 133 140 145 153 153 147 144 150 151 162 165 174 190 178 193 201 211 212 233 247 259 273 273 286 298 297 301 301 303 306 309
118 122 118 135 139 135 129 143 147 150 154 153 148 146 141 143 142 142 136 145 158 166 162 163 152 156 181 165 177 218 236 243 261 273 296 302 305 303 301 304 319 311 309
120 118 134 128 129 136 140 134 141 140 134 138 147 141 142 147 159 157 156 159 171 175 174 178 194 170 188 65 292 254 254 265 282 300 295 297 302 306 318 313 315 310 306
147 129 148 148 135 131 138 143 147 136 136 139 146 147 149 151 158 165 162 172 175 175 185 205 220 232 249 249 245 261 272 282 276 287 288 299 311 326 341 331 326 314 315
150 139 153 150 149 141 139 135 145 147 145 143 145 152 157 153 157 169 177 177 175 182 176 174 183 203 215 224 234 256 261 269 278 286 292 302 306 306 308 318 322 312 312
167 168 159 165 160 153 155 154 154 151 155 159 168 171 182 180 176 177 177 185 185 192 200 205 206 213 237 261 249 242 261 276 294 320 319 326 326 331 329 325 329 341 343